• In Hungary
  • List of Countries
  • For 7 days
  • Water Temperature
  • Satellite Maps
  • Weather Map
  • News
  • Weather Widgets
  • user-avatar
    Login

    Hourly Weather Kaufbeuren

    Today, 20 August, Monday

    Time Temperature Precipitation Wind Pressure Humidity
    00:00 +18°C° 0.2 mm 1 mps 706 mmHg 91%
    01:00 +18°C° 0.2 mm 1 mps 706 mmHg 92%
    02:00 +16°C° 0 mm 1 mps 706 mmHg 92%
    03:00 +16°C° 0 mm 1 mps 705 mmHg 92%
    04:00 +16°C° 0 mm 1 mps 705 mmHg 93%
    05:00 +18°C° 0 mm 1 mps 705 mmHg 92%
    06:00 +18°C° 0 mm 1 mps 705 mmHg 91%
    07:00 +19°C° 0 mm 1 mps 706 mmHg 90%
    08:00 +20°C° 0 mm 1 mps 706 mmHg 85%
    09:00 +22°C° 0 mm 1 mps 706 mmHg 79%
    10:00 +24°C° 0 mm 1 mps 706 mmHg 73%
    11:00 +24°C° 0.3 mm 1 mps 706 mmHg 72%
    12:00 +25°C° 0.3 mm 2 mps 706 mmHg 70%
    13:00 +26°C° 0.3 mm 2 mps 706 mmHg 68%
    14:00 +25°C° 0.4 mm 2 mps 705 mmHg 70%
    15:00 +25°C° 0.4 mm 2 mps 705 mmHg 71%
    16:00 +25°C° 0.4 mm 1 mps 705 mmHg 73%
    17:00 +24°C° 0.7 mm 1 mps 705 mmHg 77%
    18:00 +22°C° 0.7 mm 1 mps 705 mmHg 82%
    19:00 +21°C° 0.7 mm 1 mps 705 mmHg 86%
    20:00 +20°C° 0.1 mm 1 mps 705 mmHg 88%
    21:00 +19°C° 0.1 mm 1 mps 705 mmHg 91%
    22:00 +18°C° 0.1 mm 1 mps 706 mmHg 93%
    23:00 +18°C° 0 mm 1 mps 706 mmHg 93%

    Tomorrow, 21 August, Tuesday

    Time Temperature Precipitation Wind Pressure Humidity
    00:00 +16°C° 0 mm 1 mps 706 mmHg 94%
    01:00 +16°C° 0 mm 1 mps 705 mmHg 95%
    02:00 +16°C° 0 mm 1 mps 705 mmHg 95%
    03:00 +16°C° 0 mm 1 mps 705 mmHg 95%
    04:00 +15°C° 0 mm 1 mps 705 mmHg 96%
    05:00 +16°C° 0 mm 1 mps 705 mmHg 95%
    06:00 +18°C° 0 mm 1 mps 705 mmHg 94%
    07:00 +18°C° 0 mm 1 mps 705 mmHg 93%
    08:00 +20°C° 0 mm 1 mps 706 mmHg 86%
    09:00 +22°C° 0 mm 1 mps 706 mmHg 79%
    10:00 +24°C° 0 mm 2 mps 706 mmHg 72%
    11:00 +25°C° 0 mm 2 mps 706 mmHg 69%
    12:00 +26°C° 0 mm 3 mps 706 mmHg 67%
    13:00 +26°C° 0 mm 3 mps 705 mmHg 64%
    14:00 +26°C° 0.4 mm 3 mps 705 mmHg 66%
    15:00 +26°C° 0.4 mm 3 mps 705 mmHg 69%
    16:00 +26°C° 0.4 mm 3 mps 705 mmHg 72%
    17:00 +25°C° 0.4 mm 2 mps 705 mmHg 77%
    18:00 +23°C° 0.4 mm 2 mps 704 mmHg 82%
    19:00 +22°C° 0.4 mm 1 mps 704 mmHg 87%
    20:00 +21°C° 0.5 mm 1 mps 705 mmHg 89%
    21:00 +20°C° 0.5 mm 1 mps 705 mmHg 90%
    22:00 +19°C° 0.5 mm 1 mps 705 mmHg 92%
    23:00 +19°C° 0.1 mm 1 mps 705 mmHg 93%

    Day after tomorrow, 22 August, Wednesday

    Time Temperature Precipitation Wind Pressure Humidity
    00:00 +19°C° 0.1 mm 1 mps 705 mmHg 93%
    01:00 +18°C° 0.1 mm 1 mps 705 mmHg 94%
    02:00 +18°C° 0.1 mm 1 mps 705 mmHg 94%
    03:00 +18°C° 0.1 mm 1 mps 704 mmHg 94%
    04:00 +18°C° 0.1 mm 1 mps 704 mmHg 95%
    05:00 +18°C° 0 mm 1 mps 704 mmHg 93%
    06:00 +19°C° 0 mm 1 mps 705 mmHg 92%
    07:00 +17°C° 0 mm 0 mps 705 mmHg 91%
    08:00 +21°C° 0.2 mm 1 mps 705 mmHg 86%
    09:00 +23°C° 0.2 mm 1 mps 705 mmHg 81%
    10:00 +25°C° 0.2 mm 1 mps 705 mmHg 76%
    11:00 +25°C° 0.8 mm 1 mps 705 mmHg 74%
    12:00 +26°C° 0.8 mm 1 mps 705 mmHg 72%
    13:00 +26°C° 0.8 mm 1 mps 704 mmHg 70%
    14:00 +26°C° 0.7 mm 1 mps 704 mmHg 71%
    15:00 +26°C° 0.7 mm 1 mps 704 mmHg 71%
    16:00 +24°C° 0.7 mm 0 mps 704 mmHg 72%
    17:00 +23°C° 0.6 mm 0 mps 704 mmHg 76%
    18:00 +21°C° 0.6 mm 0 mps 704 mmHg 81%
    19:00 +20°C° 0.6 mm 0 mps 704 mmHg 86%
    20:00 +21°C° 0.1 mm 1 mps 704 mmHg 87%
    21:00 +20°C° 0.1 mm 1 mps 704 mmHg 88%
    22:00 +20°C° 0.1 mm 1 mps 704 mmHg 89%
    23:00 +19°C° 0 mm 1 mps 704 mmHg 89%

    23 August, Thursday

    Time Temperature Precipitation Wind Pressure Humidity
    00:00 +19°C° 0 mm 1 mps 704 mmHg 89%
    01:00 +18°C° 0 mm 2 mps 703 mmHg 90%
    02:00 +17°C° 0 mm 2 mps 703 mmHg 90%
    03:00 +17°C° 0 mm 2 mps 703 mmHg 90%
    04:00 +17°C° 0 mm 2 mps 703 mmHg 90%
    05:00 +17°C° 0.2 mm 2 mps 703 mmHg 89%
    06:00 +19°C° 0.2 mm 1 mps 703 mmHg 89%
    07:00 +19°C° 0.2 mm 1 mps 703 mmHg 88%
    08:00 +21°C° 0.3 mm 1 mps 703 mmHg 82%
    09:00 +23°C° 0.3 mm 1 mps 703 mmHg 77%
    10:00 +25°C° 0.3 mm 1 mps 703 mmHg 71%
    11:00 +25°C° 0.7 mm 1 mps 703 mmHg 71%
    12:00 +26°C° 0.7 mm 2 mps 702 mmHg 70%
    13:00 +26°C° 0.7 mm 2 mps 702 mmHg 70%
    14:00 +26°C° 1.3 mm 1 mps 702 mmHg 72%
    15:00 +25°C° 1.3 mm 1 mps 702 mmHg 75%
    16:00 +25°C° 1.3 mm 1 mps 701 mmHg 77%
    17:00 +24°C° 0.5 mm 1 mps 701 mmHg 80%
    18:00 +22°C° 0.5 mm 1 mps 701 mmHg 83%
    19:00 +21°C° 0.5 mm 1 mps 701 mmHg 87%
    20:00 +20°C° 0.1 mm 1 mps 701 mmHg 87%
    21:00 +19°C° 0.1 mm 2 mps 701 mmHg 88%
    22:00 +18°C° 0.1 mm 2 mps 701 mmHg 88%
    23:00 +18°C° 0 mm 2 mps 701 mmHg 87%

    24 August, Friday

    Time Temperature Precipitation Wind Pressure Humidity
    00:00 +17°C° 0 mm 2 mps 700 mmHg 86%
    01:00 +17°C° 0 mm 2 mps 700 mmHg 85%
    02:00 +16°C° 0 mm 2 mps 700 mmHg 85%
    03:00 +16°C° 0 mm 2 mps 699 mmHg 84%
    04:00 +16°C° 0 mm 2 mps 699 mmHg 83%
    05:00 +16°C° 0 mm 2 mps 699 mmHg 83%
    06:00 +17°C° 0 mm 2 mps 699 mmHg 82%
    07:00 +18°C° 0 mm 2 mps 699 mmHg 82%
    08:00 +20°C° 0.1 mm 2 mps 699 mmHg 75%
    09:00 +23°C° 0.1 mm 2 mps 699 mmHg 67%
    10:00 +25°C° 0.1 mm 2 mps 699 mmHg 60%
    11:00 +25°C° 0.6 mm 2 mps 698 mmHg 63%
    12:00 +25°C° 0.6 mm 3 mps 698 mmHg 65%
    13:00 +25°C° 0.6 mm 3 mps 698 mmHg 67%
    14:00 +22°C° 1.8 mm 3 mps 698 mmHg 75%
    15:00 +21°C° 1.8 mm 3 mps 698 mmHg 84%
    16:00 +19°C° 1.8 mm 3 mps 697 mmHg 92%
    17:00 +18°C° 2.9 mm 3 mps 698 mmHg 94%
    18:00 +17°C° 2.9 mm 3 mps 698 mmHg 95%
    19:00 +16°C° 2.9 mm 3 mps 698 mmHg 96%
    20:00 +14°C° 3.3 mm 3 mps 698 mmHg 97%
    21:00 +13°C° 3.3 mm 3 mps 698 mmHg 97%
    22:00 +13°C° 3.3 mm 3 mps 699 mmHg 97%
    23:00 +13°C° 2.3 mm 2 mps 699 mmHg 97%

    25 August, Saturday

    Time Temperature Precipitation Wind Pressure Humidity
    00:00 +13°C° 2.3 mm 2 mps 699 mmHg 97%
    01:00 +12°C° 2.3 mm 2 mps 699 mmHg 97%
    02:00 +12°C° 1.6 mm 2 mps 698 mmHg 97%
    03:00 +10°C° 1.6 mm 2 mps 698 mmHg 97%
    04:00 +11°C° 1.6 mm 1 mps 698 mmHg 97%
    05:00 +11°C° 1.7 mm 1 mps 698 mmHg 97%
    06:00 +11°C° 1.7 mm 1 mps 698 mmHg 97%
    07:00 +10°C° 1.7 mm 1 mps 698 mmHg 97%
    08:00 +10°C° 2.1 mm 1 mps 698 mmHg 97%
    09:00 +10°C° 2.1 mm 1 mps 698 mmHg 97%
    10:00 +10°C° 2.1 mm 1 mps 698 mmHg 97%
    11:00 +10°C° 2.6 mm 1 mps 699 mmHg 97%
    12:00 +9°C° 2.6 mm 2 mps 699 mmHg 97%
    13:00 +9°C° 2.6 mm 2 mps 699 mmHg 97%
    14:00 +9°C° 2.3 mm 2 mps 699 mmHg 97%
    15:00 +9°C° 2.3 mm 2 mps 699 mmHg 97%
    16:00 +9°C° 2.3 mm 2 mps 700 mmHg 97%
    17:00 +9°C° 2.3 mm 2 mps 700 mmHg 97%
    18:00 +10°C° 2.3 mm 1 mps 700 mmHg 97%
    19:00 +10°C° 2.3 mm 1 mps 700 mmHg 98%
    20:00 +10°C° 1.2 mm 1 mps 700 mmHg 97%
    21:00 +10°C° 1.2 mm 1 mps 701 mmHg 97%
    22:00 +10°C° 1.2 mm 1 mps 701 mmHg 97%
    23:00 +10°C° 0.8 mm 1 mps 701 mmHg 97%
    Show more